Hourly Weather Roundup
Issued by NWS Central Illinois

Home | Current Version | Previous Version | Text Only | Print | Product List | Glossary On
Versions: 1 2 3 4 5 6 7 8 9 10 11 12 13 14 15 16 17 18 19 20 21 22 23 24 25 26 27 28 29 30 31 32 33 34 35 36 37 38 39 40 41 42 43 44 45 46 47 48 49 50
000
NZUS43 KILX 250610
HWRILX

Area Weather Roundup
National Weather Service Lincoln IL
100 AM CDT SUN JUN 25 2017

NOTE:  "FAIR" indicates few or no clouds below 12,000 feet, with
       no sigificant weather and/or obstructions to visibility.


CITY           SKY/WX    TMP DP  RH WIND       PRES   REMARKS
Bloomington    PTCLDY    59  45  59 SW12      30.11F
6HR MIN TEMP:  57; 6HR MAX TEMP:  71;

Champaign      CLEAR     56  46  69 S9        30.12F
6HR MIN TEMP:  56; 6HR MAX TEMP:  72;

Danville       CLEAR     54  49  81 SW5       30.09F
6HR MIN TEMP:  54; 6HR MAX TEMP:  71;

Decatur        CLEAR     57  48  72 SW7       30.12F
6HR MIN TEMP:  57; 6HR MAX TEMP:  73;

Effingham      CLEAR     56  54  91 CALM      30.17F
6HR MIN TEMP:  56; 6HR MAX TEMP:  75;

Flora          CLEAR     58  52  78 CALM      30.17F
6HR MIN TEMP:  57; 6HR MAX TEMP:  76;

Galesburg      MOCLDY    55  48  79 CALM      30.13S
6HR MIN TEMP:  55; 6HR MAX TEMP:  72;

Jacksonville   PTCLDY    61  46  57 SW7       30.13S
6HR MIN TEMP:  60; 6HR MAX TEMP:  73;

Lacon          CLEAR     60  49  68 CALM      30.10S
6HR MIN TEMP:  59; 6HR MAX TEMP:  72;

Lawrenceville  CLEAR     61  53  75 W5        30.15F
6HR MIN TEMP:  61; 6HR MAX TEMP:  75;

Litchfield     CLEAR     55  52  90 S3        30.16F
6HR MIN TEMP:  55; 6HR MAX TEMP:  73;

$$


CITY           SKY/WX    TMP DP  RH WIND       PRES   REMARKS
Lincoln        PTCLDY    63  47  55 SW3       30.11S
6HR MIN TEMP:  60; 6HR MAX TEMP:  74;

Macomb         CLEAR     56  50  81 W7        30.15R
6HR MIN TEMP:  56; 6HR MAX TEMP:  73;

Mattoon        CLEAR     61  50  67 SW7       30.13F
6HR MIN TEMP:  59; 6HR MAX TEMP:  74;

Mt Carmel AP   CLEAR     58  55  89 W5        30.16S
6HR MIN TEMP:  58; 6HR MAX TEMP:  73;

Olney-Noble AP CLEAR     59  56  89 CALM      30.16F
Paris AP       CLEAR     54  51  90 SW3       30.14S
6HR MIN TEMP:  54; 6HR MAX TEMP:  73;

Peoria         PTCLDY    61  46  57 NW3       30.12R
6HR MIN TEMP:  60; 6HR MAX TEMP:  73;

Pontiac        CLOUDY    62  50  66 W7        30.10S
6HR MIN TEMP:  60; 6HR MAX TEMP:  72;

Rantoul        CLOUDY    60  48  64 SW6       30.11S
6HR MIN TEMP:  57; 6HR MAX TEMP:  74;

Robinson       CLEAR     54  52  95 SW3       30.16F
6HR MIN TEMP:  54; 6HR MAX TEMP:  73;

Springfield    PTCLDY    62  48  60 SW6       30.13S
6HR MIN TEMP:  61; 6HR MAX TEMP:  76;

Taylorville    CLEAR     55  49  83 SW3       30.14F
6HR MIN TEMP:  55; 6HR MAX TEMP:  73;

$$

...REGIONAL REPORTS...


CITY           SKY/WX    TMP DP  RH WIND       PRES   REMARKS
Chicago O`Hare MOCLDY    59  51  75 W7        30.05S
Kankakee       PTCLDY    57  50  77 SW6       30.08F
Moline         CLEAR     56  51  84 CALM      30.11S
Mount Sterling CLEAR     60  49  66 SW7       30.12S
Mount Vernon   CLEAR     54  54 100 CALM      30.18F
Pittsfield     PTCLDY    63  50  63 SW6       30.15S
Quincy         CLEAR     58  51  78 SW7       30.13S
Rockford       CLEAR     54  51  90 W5        30.09S
$$


CITY           SKY/WX    TMP DP  RH WIND       PRES   REMARKS
Burlington     CLEAR     61  47  59 NW6       30.13R
Cedar Rapids   CLEAR     50  47  89 W6        30.12S
Des Moines     PTCLDY    60  46  59 NW3       30.17R
Kirksville     CLEAR     59  48  67 W3        30.16S
Ottumwa        CLEAR     53  44  71 NW6       30.15S
St Louis       PTCLDY    66  47  50 SW6       30.17F
$$


CITY           SKY/WX    TMP DP  RH WIND       PRES   REMARKS
Terre Haute    CLEAR     56  53  90 CALM      30.13F
Evansville     CLEAR     62  52  69 W3        30.16F
Indianapolis   CLEAR     59  48  67 SW6       30.12F
Lafayette      CLEAR     53  52  96 CALM      30.10F
Madison        CLEAR     53  50  89 VRB3      30.04F
Milwaukee      PTCLDY    56  49  77 W13       30.02S
$$






USA.gov is the U.S. government's official web portal to all federal, state and local government web resources and services.